SL-3 DEB, 25255

Orbit data source: Space-Track

SL-3 DEB, 25255 is space debris in LEO originally from a launch on Thu, 14 May 1981 UTC launched from the Plesetsk Missile And Space Complex (PKMTR). Debris objects in space refer to the collection of defunct objects orbiting the Earth. Examples of debris include non-operational satellites, rocket bodies, and fragments generated from explosions, collisions, or faulty payload assembly.

Loading next visibility...
SL-3 DEB details
Identifier
25255, 1981-043D
Orbit
LEO
Last TLE update10 hours ago
Origin
Flag of CISRVSN RF (CIS)
ManufacturerUnknown
MissionSpacecraft
Bus & MotorUnknown
MassUnknown
Launch date (UTC)
1981-05-14 (44 years ago)
Launch vehicleUnknown
Launch site
Plesetsk Missile And Space Complex (PKMTR)
Object type
Payload
Rocket body
Debris
Shape & HBRUnknown
Radar Cross SectionSmall (<0.1 m²)

Expand to show TLE details & history

TLE from 10 hours ago
0 SL-3 DEB
1 25255U 81043D   24361.19961925  .00000566  00000-0  31976-3 0  9999
2 25255  81.2959 339.2912 0045983 311.1691  59.7371 14.08480963446251
Epoch: 2024-12-26T04:47Z
Definitive object data (Epoch: 2024-12-26T04:47:27.103Z)
Latitude11.18304°
Longitude173.97108°
Altitude850.044 km
Speed7.437 km/s
True Right ascension22h 44m 03s
True Declination11° 07' 07"
Sunlit
Object was in daylight at TLE epoch
Visualization TLE readout
Latitude-26.67975°
Longitude167.45296°
Altitude843.864 km
Speed7.445 km/s
Apparent Right ascension23h 57m 34s
Apparent Declination-36° 18' 02"
Sunlit
Object is in daylight
Visualization observer readout
Local Sidereal Time14:12:21
Azimuth93.051° ESE
Elevation-63.398°
Doppler factor1
Orbital elements
Apogee altitude895.039 km
Perigee altitude828.457 km
Semi-major axis7,239.885 km
Eccentricity0.0045983
Inclination81.2959°
RAAN339.2912°
Arg. of periapsis311.1691°
True anomaly60.19354°
Mean anomaly59.7371°
Eccentric anomaly59.96519°
Mean motion3.52327 °/min
BSTAR0.00031976
Orbital period102.18 mins
Loading maneuver chart data...
Loading historical data...
Loading historical data...
Loading historical data...
Loading historical data...
Loading historical data...
Loading historical data...
Loading historical data...

SL-3 DEB Visibility forecast

Observer location: undefined°, undefined

Span
Click to sort rows by Start time (UTC) header in descending order
Start Az.
Max El. time (UTC)
Max El. Az.
Max El.
End time (UTC)
End Az.
10 mins2024-12-26 23:36:27.378Z188.305° SSW2024-12-26 23:40:27.378Z193.415° SSW44.095°2024-12-26 23:46:27.378Z8.954° NNE
10 mins2024-12-27 10:18:27.378Z358.676° N2024-12-27 10:22:27.378Z50.446° ENE42.259°2024-12-27 10:28:27.378Z162.063° S
5 mins2024-12-27 12:03:27.378Z298.385° NW2024-12-27 12:05:27.378Z275.672° WNW15.017°2024-12-27 12:08:27.378Z243.562° WSW
|